Flag for Australia Weather past 2 weeks in Brisbane, Queensland, Australia

Now
59 °F

Light rain. More clouds than sun.


Feels Like: 58 °F
Forecast: 57 / 67 °F
Wind: 8 mph from Southeast

Location: Brisbane Airport M. O

Current Time: Aug 23, 2014 at 4:37:19 PM

Latest Report: Aug 23, 2014 at 4:00 PM


Visibility: 3 mi

Pressure: 30.18 "Hg

Humidity: 94%

Dew point: 57 °F

Location of BrisbaneLocation

Historic Weather in Brisbane — Graph

°F

Brisbane temperature yesterday

Maximum temperature yesterday: 63 °F (at 11:30 AM)
Minimum temperature yesterday: 57 °F (at 1:00 AM)
Average temperature yesterday: 59 °F

Past Weeks' High & Low Weather Summary

 TemperatureHumidityPressure
High75 °F (Aug 11, 12:00 PM)100% (Aug 10, 2:00 AM)30.42 "Hg (Aug 10, 2:00 AM)
Low48 °F (Aug 14, 2:30 AM)22% (Aug 17, 4:00 PM)29.74 "Hg (Aug 17, 1:30 PM)
Average61 °F70%30.15 "Hg
* Reported Aug 8 3:00 PM — Aug 23 3:00 PM, Brisbane, Weather by CustomWeather, © 2014

Note: Actual official high and low records may vary slightly from our data, if they occured in-between our weather recording intervals... More about our weather records

Advertising

Brisbane weather history for previous 24 hours

 ConditionsComfort  
Time TempWeatherWind HumidityBarometerVisibility
3:00 PM
Aug 23
59 °FLight rain. Partly sunny.13 mph88%30.15 "HgN/A
2:00 PM59 °FLight rain. More clouds than sun.14 mph94%30.18 "HgN/A
1:00 PM61 °FLight rain. Broken clouds.13 mph88%30.18 "Hg5 mi
12:00 PM61 °FLight rain. Mostly cloudy.12 mph88%30.18 "Hg5 mi
11:30 AM61 °FLight rain. Partly sunny.14 mph88%30.18 "Hg4 mi
11:00 AM61 °FLight rain. Broken clouds.12 mph88%30.21 "Hg3 mi
10:30 AM61 °FLight rain. More clouds than sun.10 mph94%30.21 "Hg6 mi
10:00 AM61 °FLight rain. Partly sunny.12 mph94%30.21 "HgN/A
9:00 AM59 °FLight rain. Broken clouds.10 mph94%30.21 "Hg4 mi
8:30 AM59 °FLight rain. More clouds than sun.12 mph88%30.21 "HgN/A
8:00 AM57 °FLight rain. Partly sunny.13 mph94%30.18 "HgN/A
7:30 AM57 °FLight rain. Partly sunny.10 mph94%30.18 "HgN/A
7:00 AM57 °FLight rain. Broken clouds.12 mph94%30.18 "HgN/A
6:30 AM57 °FLight rain. Partly sunny.12 mph94%30.18 "HgN/A
6:00 AM57 °FLight rain. Broken clouds.10 mph94%30.15 "HgN/A
5:30 AM57 °FLight rain. Broken clouds.10 mph94%30.15 "HgN/A
5:00 AM57 °FLight rain. Partly cloudy.10 mph94%30.15 "HgN/A
4:30 AM57 °FLight rain. Partly cloudy.10 mph94%30.15 "HgN/A
4:00 AM57 °FLight rain. Partly cloudy.13 mph94%30.15 "HgN/A
3:00 AM57 °FLight rain. Partly cloudy.10 mph94%30.18 "HgN/A
2:30 AM57 °FLight rain. Mostly cloudy.13 mph94%30.18 "HgN/A
2:00 AM57 °FLight rain. Mostly cloudy.10 mph94%30.18 "HgN/A
1:30 AM57 °FRain. Mostly cloudy.12 mph94%30.21 "Hg5 mi
1:00 AM57 °FLight rain. Mostly cloudy.12 mph94%30.21 "HgN/A
12:30 AM57 °FLight rain. Mostly cloudy.12 mph94%30.21 "HgN/A
12:00 AM57 °FLight rain. Mostly cloudy.10 mph94%30.21 "HgN/A
11:30 PM
Aug 22
57 °FLight rain. Mostly cloudy.10 mph94%30.21 "HgN/A
11:00 PM57 °FLight rain. Mostly cloudy.9 mph94%30.24 "HgN/A
10:30 PM57 °FLight rain. Mostly cloudy.10 mph94%30.24 "HgN/A
10:00 PM57 °FLight rain. Mostly cloudy.9 mph94%30.24 "HgN/A
9:30 PM57 °FLight rain. Mostly cloudy.10 mph94%30.24 "HgN/A
9:00 PM57 °FRain. Mostly cloudy.10 mph94%30.24 "HgN/A
8:30 PM57 °FLight rain. Mostly cloudy.10 mph94%30.24 "HgN/A
8:00 PM59 °FLight rain. Mostly cloudy.10 mph88%30.24 "HgN/A
7:30 PM59 °FLight rain. Mostly cloudy.9 mph88%30.24 "HgN/A
7:00 PM59 °FLight rain. Mostly cloudy.12 mph88%30.24 "HgN/A
6:30 PM59 °FLight rain. Mostly cloudy.9 mph88%30.24 "HgN/A
6:00 PM59 °FLight rain. Mostly cloudy.7 mph88%30.24 "HgN/A
5:30 PM59 °FLight rain. Overcast.9 mph94%30.21 "HgN/A
5:00 PM59 °FLight rain. Mostly cloudy.10 mph94%30.21 "HgN/A
4:30 PM59 °FLight rain. Mostly cloudy.9 mph94%30.21 "Hg5 mi
4:00 PM59 °FLight rain. Partly sunny.10 mph94%30.18 "Hg4 mi
Weather by CustomWeather, © 2014

See weather overviewHow to use our weather pages